{"data":{"norad_id":63494,"epoch":"2026-05-25T03:44:57.644736Z","epoch_age_seconds":57734,"freshness":"FRESH","line1":"1 63494U 25071B   26145.15622274  .00019776  00000+0  46252-3 0  9999","line2":"2 63494  53.1578 144.2962 0000859  63.3389 296.7705 15.42172302 64462","mean_motion":15.42172302,"eccentricity":8.59e-5,"inclination_deg":53.1578,"raan_deg":144.2962,"arg_perigee_deg":63.3389,"mean_anomaly_deg":296.7705,"bstar":0.00046252,"rev_number":6446,"period_min":93.374780375222,"perigee_km":439.11374378574,"apogee_km":440.28504807856,"semimajor_km":6817.8363959321,"source":"CELESTRAK","updated_at":"2026-05-25T13:38:20.011619Z"}}